Content
SEND FEEDBACK

Daily
Averages
Monthly
Summary
Russia

KVEDNAU, RUSSIA


Home > Europe > Russia
Elevation: 69 feet     Latitude: 54 43N     Longitude: 020 33E

WEATHER
 
SELECT A DAY
Number of Records: 162,935;   Date Range: 3/24/97 - 4/17/14
 
SHARE

PRINT THIS DATA

[ ← Previous Day ]
WEATHER ALMANAC - FEBRUARY 13, 2013
[ Next Day → ]
[ °C ]   °F
Weather ElementAverageHighLow
Temperature30.5 °F35.6 °F (4:00 pm)23 °F (12:00 am)
Dewpoint25.3 °F28.4 °F (5:00 pm)19.4 °F (12:00 am)
Humidity80.1 %93 % (9:30 am)67 % (6:00 pm)
Barometer30.24 in30.36 in (11:00 pm)30.15 in (12:00 am)
Wind Speed6.7 mph13.4 mph (6:30 am)
Weather ElementAverage
Visibility5 mi
Wind DirectionESE (116.4 °)

Weather ElementTotal
Precipitation---
Heating Degree Days35.7 (Base 65)
Averaged from 55 records on February 13, 2013
WEATHER CONDITIONS BREAKOUT
WIND DIRECTION BREAKOUT
WEATHER BY HOUR - FEBRUARY 13, 2013
[ °C ]   °F
Local TimeTemperatureDewpointHumidityBarometerVisibilityWind DirectionWind SpeedGust SpeedPrecipitationEventsConditions
12:00 AM23.0 °F19.4 °F86 %30.15 in4.3 miESE (110°)4.5 mph
12:30 AM24.8 °F21.2 °F86 %30.15 in4.3 miESE (120°)4.5 mph
1:00 AM26.6 °F21.2 °F80 %30.15 in4.3 miESE (120°)4.5 mph
1:30 AM26.6 °F21.2 °F80 %30.15 in4.3 miEast (100°)4.5 mph
2:00 AM26.6 °F21.2 °F80 %30.15 in4.3 miEast (100°)4.5 mph
2:30 AM26.6 °F23.0 °F86 %30.15 in4.3 miEast (80°)4.5 mph
3:00 AM26.6 °F21.2 °F80 %30.15 in3.7 miENE (70°)4.5 mph
3:00 AM28.0 °F24.0 °F77 %30.18 in2.0 miENE (70°)2.2 mphMist
3:30 AM26.6 °F23.0 °F86 %30.15 in3.7 miEast (80°)6.7 mph
4:00 AM26.6 °F23.0 °F86 %30.15 in4.3 miEast (80°)8.9 mph
4:30 AM26.6 °F23.0 °F86 %30.15 in4.3 miEast (90°)8.9 mph
5:00 AM26.6 °F23.0 °F86 %30.15 in4.3 miEast (80°)8.9 mph
5:30 AM26.6 °F23.0 °F86 %30.15 in4.3 miEast (80°)8.9 mph
6:00 AM26.6 °F23.0 °F86 %30.15 in4.3 miEast (100°)11.2 mph
6:00 AM28.0 °F24.0 °F77 %30.17 in2.0 miESE (110°)6.7 mphMist
6:30 AM26.6 °F23.0 °F86 %30.15 in4.3 miESE (110°)13.4 mph
7:00 AM26.6 °F23.0 °F86 %30.18 in4.3 miSE (130°)8.9 mph
7:30 AM26.6 °F23.0 °F86 %30.18 in4.3 miSE (130°)8.9 mph
8:00 AM28.4 °F23.0 °F80 %30.18 in5.0 miSE (130°)8.9 mphOvercast
8:30 AM28.4 °F23.0 °F80 %30.18 in5.0 miSE (130°)4.5 mphOvercast
9:00 AM28.4 °F24.8 °F86 %30.18 in4.3 miESE (120°)6.7 mphOvercast
9:00 AM28.0 °F25.0 °F82 %30.20 in2.0 miESE (110°)4.5 mphMist
9:30 AM26.6 °F24.8 °F93 %30.18 in4.3 miEast (100°)4.5 mphOvercast
10:00 AM26.6 °F24.8 °F93 %30.21 in3.7 miEast (90°)4.5 mphOvercast
10:30 AM26.6 °F24.8 °F93 %30.21 in3.7 miENE (70°)2.2 mphOvercast
11:00 AM28.4 °F24.8 °F86 %30.24 in3.7 miEast (80°)4.5 mphOvercast
11:30 AM28.4 °F24.8 °F86 %30.24 in3.7 miEast (90°)6.7 mphOvercast
12:00 PM30.2 °F26.6 °F86 %30.24 in4.3 miEast (90°)6.7 mphOvercast
12:00 PM30.0 °F26.0 °F80 %30.26 in2.0 miEast (90°)2.2 mphMist
12:30 PM30.2 °F26.6 °F86 %30.24 in6.2 miEast (100°)6.7 mphOvercast
1:00 PM32.0 °F26.6 °F80 %30.27 in6.2 miESE (110°)6.7 mphOvercast
1:30 PM32.0 °F26.6 °F80 %30.27 in6.2 miSE (130°)4.5 mphOvercast
2:00 PM33.8 °F26.6 °F75 %30.27 in6.2 miSE (130°)8.9 mphOvercast
2:30 PM33.8 °F26.6 °F75 %30.27 in6.2 miSE (130°)11.2 mphOvercast
3:00 PM33.8 °F26.6 °F75 %30.27 in6.2 miSE (140°)13.4 mphOvercast
3:00 PM34.0 °F28.0 °F69 %30.29 in6.0 miSSE (150°)6.7 mphOvercast
3:30 PM33.8 °F26.6 °F75 %30.27 in6.2 miSE (140°)11.2 mphOvercast
4:00 PM35.6 °F26.6 °F70 %30.27 in6.2 miSE (140°)11.2 mphOvercast
4:30 PM35.6 °F26.6 °F70 %30.27 in6.2 miSE (130°)8.9 mphOvercast
5:00 PM35.6 °F28.4 °F75 %30.27 in6.2 miSE (130°)8.9 mphOvercast
5:30 PM35.6 °F28.4 °F75 %30.30 in6.2 miSE (140°)8.9 mphOvercast
6:00 PM35.6 °F28.4 °F75 %30.30 in6.2 miSE (130°)8.9 mphOvercast
6:00 PM35.0 °F28.0 °F67 %30.30 in6.0 miSSE (150°)6.7 mphOvercast
6:30 PM35.6 °F28.4 °F75 %30.30 in6.2 miSE (140°)6.7 mphOvercast
7:00 PM35.6 °F28.4 °F75 %30.30 in6.2 miSE (140°)8.9 mphOvercast
7:30 PM35.6 °F28.4 °F75 %30.30 in6.2 miSE (140°)6.7 mphOvercast
8:00 PM35.6 °F28.4 °F75 %30.33 in6.2 miSSE (150°)6.7 mphOvercast
8:30 PM33.8 °F28.4 °F81 %30.33 in6.2 miSSE (160°)4.5 mphOvercast
9:00 PM35.6 °F28.4 °F75 %30.33 in6.2 miSSE (150°)6.7 mphOvercast
9:00 PM34.0 °F28.0 °F70 %30.34 in6.0 miSSE (150°)4.5 mphOvercast
9:30 PM35.6 °F26.6 °F70 %30.33 in6.2 miSE (140°)6.7 mphOvercast
10:00 PM33.8 °F26.6 °F75 %30.33 in6.2 miSE (140°)4.5 mphOvercast
10:30 PM33.8 °F28.4 °F81 %30.33 in6.2 miSE (130°)4.5 mphOvercast
11:00 PM33.8 °F26.6 °F75 %30.36 in6.2 miSE (130°)4.5 mphOvercast
11:30 PM33.8 °F28.4 °F81 %30.36 in6.2 miESE (120°)2.2 mphOvercast
Hourly data recorded from UMKK, located 11.33 miles away from Kvednau, Russia







STORIES FROM OUR PARTNERS